Location: Unspecified
(45.3999°N, 88.1269°W)
Time: 04:36:28
(UTC-05:00)

Cosmos 1674 - Visible Passes

Search period start: 26 September 2018 00:00
Search period end: 06 October 2018 00:00
Orbit: 497 x 520 km, 82.5° (Epoch: 24 September)

Date Brightness Start Highest point End Pass type
(mag) Time Alt. Az. Time Alt. Az. Time Alt. Az.
26 Sep 2.7 20:23:51 10° N 20:27:44 84° W 20:29:50 26° S visible
27 Sep 2.6 20:06:36 10° N 20:10:29 75° E 20:13:26 16° SSE visible
28 Sep 2.7 19:49:23 10° N 19:53:12 57° E 19:57:00 10° SSE visible
28 Sep 5.9 21:27:06 10° WNW 21:28:14 11° W 21:29:21 10° W visible
29 Sep 3.0 19:32:12 10° N 19:35:55 44° ENE 19:39:36 10° SSE visible
29 Sep 5.8 21:09:00 10° NW 21:11:04 14° W 21:13:08 10° WSW visible
30 Sep 3.4 19:15:03 10° N 19:18:37 34° ENE 19:22:08 10° SE visible
30 Sep 5.5 20:51:16 10° NW 20:53:54 18° W 20:56:32 10° SW visible
01 Oct 3.7 18:57:57 10° NNE 19:01:18 27° ENE 19:04:37 10° SE visible
01 Oct 5.2 20:33:41 10° NW 20:36:44 22° W 20:39:45 10° SW visible
02 Oct 4.8 20:16:12 10° NNW 20:19:32 28° W 20:22:51 10° SSW visible
03 Oct 4.4 19:58:46 10° NNW 20:02:19 36° W 20:05:51 10° SSW visible
04 Oct 3.8 19:41:22 10° NNW 19:45:06 46° W 19:48:47 10° SSW visible
05 Oct 3.3 19:24:02 10° NNW 19:27:52 61° W 19:31:38 10° S visible
